PLA_CODE;SMP_DB_REAL;SMP_DE_REAL;SMP_D_ANALYSIS;POL_CODE;MEA_CODE;MEA_PHYSICAL_UNIT;MEA_VALUE;MEA_F_STATUS;JOB_TYPE;
"PBW02e";"2022/01/01 00:01";"2022/01/01 23:59";"2022/02/07";"PM10";"PM10";"ug/m3";"4.56280476469087";"A";"DATA_VALIDATE_ENV";
"PBW02e";"2022/01/02 00:01";"2022/01/02 23:59";"2022/02/07";"PM10";"PM10";"ug/m3";"5.35289944029399";"A";"DATA_VALIDATE_ENV";
"PBW02e";"2022/01/03 00:01";"2022/01/03 23:59";"2022/02/07";"PM10";"PM10";"ug/m3";"5.10792662153831";"A";"DATA_VALIDATE_ENV";
"PBW02e";"2022/01/04 00:01";"2022/01/04 23:59";"2022/02/07";"PM10";"PM10";"ug/m3";"2";"O";"DATA_VALIDATE_ENV";
"PBW02e";"2022/01/05 00:01";"2022/01/05 23:59";"2022/02/07";"PM10";"PM10";"ug/m3";"6.22409416659734";"A";"DATA_VALIDATE_ENV";
"PBW02e";"2022/01/06 00:01";"2022/01/06 23:59";"2022/02/07";"PM10";"PM10";"ug/m3";"8.57350787759974";"A";"DATA_VALIDATE_ENV";
"PBW02e";"2022/01/07 00:01";"2022/01/07 23:59";"2022/02/07";"PM10";"PM10";"ug/m3";"3.29301604684794";"A";"DATA_VALIDATE_ENV";
"PBW02e";"2022/01/08 00:01";"2022/01/08 23:59";"2022/02/07";"PM10";"PM10";"ug/m3";"2";"O";"DATA_VALIDATE_ENV";
"PBW02e";"2022/01/09 00:01";"2022/01/09 23:59";"2022/02/07";"PM10";"PM10";"ug/m3";"3.88333291718454";"A";"DATA_VALIDATE_ENV";
"PBW02e";"2022/01/10 00:01";"2022/01/10 23:59";"2022/02/07";"PM10";"PM10";"ug/m3";"2.21354694947795";"A";"DATA_VALIDATE_ENV";
"PBW02e";"2022/01/11 00:01";"2022/01/11 23:59";"2022/02/17";"PM10";"PM10";"ug/m3";"1.63280116110305";"O";"DATA_VALIDATE_ENV";
"PBW02e";"2022/01/12 00:01";"2022/01/12 23:59";"2022/02/17";"PM10";"PM10";"ug/m3";"7.25821085102522";"A";"DATA_VALIDATE_ENV";
"PBW02e";"2022/01/13 00:01";"2022/01/13 23:59";"2022/02/17";"PM10";"PM10";"ug/m3";"7.80257666485211";"A";"DATA_VALIDATE_ENV";
"PBW02e";"2022/01/14 00:01";"2022/01/14 23:59";"2022/02/17";"PM10";"PM10";"ug/m3";"14.6952104499274";"A";"DATA_VALIDATE_ENV";
"PBW02e";"2022/01/15 00:01";"2022/01/15 23:59";"2022/02/17";"PM10";"PM10";"ug/m3";"4.35413642960813";"A";"DATA_VALIDATE_ENV";
"PBW02e";"2022/01/16 00:01";"2022/01/16 23:59";"2022/02/17";"PM10";"PM10";"ug/m3";"13.6091453456723";"A";"DATA_VALIDATE_ENV";
"PBW02e";"2022/01/17 00:01";"2022/01/17 23:59";"2022/02/17";"PM10";"PM10";"ug/m3";"11.4296081277213";"A";"DATA_VALIDATE_ENV";
"PBW02e";"2022/01/18 00:01";"2022/01/18 23:59";"2022/02/17";"PM10";"PM10";"ug/m3";"8.70827285921626";"A";"DATA_VALIDATE_ENV";
"PBW02e";"2022/01/19 00:01";"2022/01/19 23:59";"2022/02/17";"PM10";"PM10";"ug/m3";"7.07675557974959";"A";"DATA_VALIDATE_ENV";
"PBW02e";"2022/01/20 00:01";"2022/01/20 23:59";"2022/02/17";"PM10";"PM10";"ug/m3";"5.26220286699329";"A";"DATA_VALIDATE_ENV";
"PBW02e";"2022/01/21 00:01";"2022/01/21 23:59";"2022/02/17";"PM10";"PM10";"ug/m3";"6.89404934687954";"A";"DATA_VALIDATE_ENV";
"PBW02e";"2022/01/22 00:01";"2022/01/22 23:59";"2022/02/17";"PM10";"PM10";"ug/m3";"13.2438316400581";"A";"DATA_VALIDATE_ENV";
"PBW02e";"2022/01/23 00:01";"2022/01/23 23:59";"2022/02/17";"PM10";"PM10";"ug/m3";"11.2502268190891";"A";"DATA_VALIDATE_ENV";
"PBW02e";"2022/01/24 00:01";"2022/01/24 23:59";"2022/02/17";"PM10";"PM10";"ug/m3";"5.98802395209581";"A";"DATA_VALIDATE_ENV";
"PBW02e";"2022/01/25 00:01";"2022/01/25 23:59";"2022/02/18";"PM10";"PM10";"ug/m3";"4.04537329653005";"A";"DATA_VALIDATE_ENV";
"PBW02e";"2022/01/26 00:01";"2022/01/26 23:59";"2022/02/18";"PM10";"PM10";"ug/m3";"12.2570230099493";"A";"DATA_VALIDATE_ENV";
"PBW02e";"2022/01/27 00:01";"2022/01/27 23:59";"2022/02/18";"PM10";"PM10";"ug/m3";"8.86417650912553";"A";"DATA_VALIDATE_ENV";
"PBW02e";"2022/01/28 00:01";"2022/01/28 23:59";"2022/02/18";"PM10";"PM10";"ug/m3";"6.7579685690095";"A";"DATA_VALIDATE_ENV";
"PBW02e";"2022/01/29 00:01";"2022/01/29 23:59";"2022/02/18";"PM10";"PM10";"ug/m3";"3.04837037378767";"A";"DATA_VALIDATE_ENV";
"PBW02e";"2022/01/30 00:01";"2022/01/30 23:59";"2022/02/18";"PM10";"PM10";"ug/m3";"11.520284526753";"A";"DATA_VALIDATE_ENV";
"PBW02e";"2022/01/31 00:01";"2022/01/31 23:59";"2022/02/18";"PM10";"PM10";"ug/m3";"5.88800011172612";"A";"DATA_VALIDATE_ENV";
"PBW02e";"2022/02/01 00:01";"2022/02/01 23:59";"2022/02/18";"PM10";"PM10";"ug/m3";"5.38815391427028";"A";"DATA_VALIDATE_ENV";
"PBW02e";"2022/02/02 00:01";"2022/02/02 23:59";"2022/02/18";"PM10";"PM10";"ug/m3";"5.36209268073295";"A";"DATA_VALIDATE_ENV";
"PBW02e";"2022/02/03 00:01";"2022/02/03 23:59";"2022/02/18";"PM10";"PM10";"ug/m3";"3.33876861588878";"A";"DATA_VALIDATE_ENV";
"PBW02e";"2022/02/04 00:01";"2022/02/04 23:59";"2022/02/18";"PM10";"PM10";"ug/m3";"3.93696680816407";"A";"DATA_VALIDATE_ENV";
"PBW02e";"2022/02/05 00:01";"2022/02/05 23:59";"2022/02/18";"PM10";"PM10";"ug/m3";"7.51086649943159";"A";"DATA_VALIDATE_ENV";
"PBW02e";"2022/02/06 00:01";"2022/02/06 23:59";"2022/02/18";"PM10";"PM10";"ug/m3";"2";"O";"DATA_VALIDATE_ENV";
"PBW02e";"2022/02/07 00:01";"2022/02/07 23:59";"2022/02/18";"PM10";"PM10";"ug/m3";"6.40436336506261";"A";"DATA_VALIDATE_ENV";
"PBW02e";"2022/02/08 00:01";"2022/02/08 23:59";"2022/03/10";"PM10";"PM10";"ug/m3";"4.84483771132938";"A";"DATA_VALIDATE_ENV";
"PBW02e";"2022/02/09 00:01";"2022/02/09 23:59";"2022/03/10";"PM10";"PM10";"ug/m3";"10.270471906861";"A";"DATA_VALIDATE_ENV";
"PBW02e";"2022/02/10 00:01";"2022/02/10 23:59";"2022/03/10";"PM10";"PM10";"ug/m3";"11.3228275476967";"A";"DATA_VALIDATE_ENV";
"PBW02e";"2022/02/11 00:01";"2022/02/11 23:59";"2022/03/10";"PM10";"PM10";"ug/m3";"9.52636021015497";"A";"DATA_VALIDATE_ENV";
"PBW02e";"2022/02/12 00:01";"2022/02/12 23:59";"2022/03/10";"PM10";"PM10";"ug/m3";"11.7403088193951";"A";"DATA_VALIDATE_ENV";
"PBW02e";"2022/02/13 00:01";"2022/02/13 23:59";"2022/03/10";"PM10";"PM10";"ug/m3";"15.8200481114436";"A";"DATA_VALIDATE_ENV";
"PBW02e";"2022/02/14 00:01";"2022/02/14 23:59";"2022/03/10";"PM10";"PM10";"ug/m3";"4.35516246324268";"A";"DATA_VALIDATE_ENV";
"PBW02e";"2022/02/15 00:01";"2022/02/15 23:59";"2022/03/10";"PM10";"PM10";"ug/m3";"2.55888906018487";"A";"DATA_VALIDATE_ENV";
"PBW02e";"2022/02/16 00:01";"2022/02/16 23:59";"2022/03/10";"PM10";"PM10";"ug/m3";"2";"O";"DATA_VALIDATE_ENV";
"PBW02e";"2022/02/17 00:01";"2022/02/17 23:59";"2022/03/10";"PM10";"PM10";"ug/m3";"10.0525380305728";"A";"DATA_VALIDATE_ENV";
"PBW02e";"2022/02/18 00:01";"2022/02/18 23:59";"2022/03/10";"PM10";"PM10";"ug/m3";"6.0786246561221";"A";"DATA_VALIDATE_ENV";
"PBW02e";"2022/02/19 00:01";"2022/02/19 23:59";"2022/03/10";"PM10";"PM10";"ug/m3";"5.13430430684969";"A";"DATA_VALIDATE_ENV";
"PBW02e";"2022/02/20 00:01";"2022/02/20 23:59";"2022/03/10";"PM10";"PM10";"ug/m3";"2.3880829345171";"A";"DATA_VALIDATE_ENV";
"PBW02e";"2022/02/21 00:01";"2022/02/21 23:59";"2022/03/10";"PM10";"PM10";"ug/m3";"3.57417003163752";"A";"DATA_VALIDATE_ENV";
"PBW02e";"2022/02/22 00:01";"2022/02/22 23:59";"2022/03/21";"PM10";"PM10";"ug/m3";"4.34518076684894";"A";"DATA_VALIDATE_ENV";
"PBW02e";"2022/02/23 00:01";"2022/02/23 23:59";"2022/03/21";"PM10";"PM10";"ug/m3";"4.86322419220729";"A";"DATA_VALIDATE_ENV";
"PBW02e";"2022/02/24 00:01";"2022/02/24 23:59";"2022/03/21";"PM10";"PM10";"ug/m3";"2";"O";"DATA_VALIDATE_ENV";
"PBW02e";"2022/02/25 00:01";"2022/02/25 23:59";"2022/03/21";"PM10";"PM10";"ug/m3";"4.75312438516382";"A";"DATA_VALIDATE_ENV";
"PBW02e";"2022/02/26 00:01";"2022/02/26 23:59";"2022/03/21";"PM10";"PM10";"ug/m3";"9.75294654803275";"A";"DATA_VALIDATE_ENV";
"PBW02e";"2022/02/27 00:01";"2022/02/27 23:59";"2022/03/21";"PM10";"PM10";"ug/m3";"3.35688470734202";"A";"DATA_VALIDATE_ENV";
"PBW02e";"2022/02/28 00:01";"2022/02/28 23:59";"2022/03/21";"PM10";"PM10";"ug/m3";"8.49212066077252";"A";"DATA_VALIDATE_ENV";
"PBW02e";"2022/03/01 00:01";"2022/03/01 23:59";"2022/03/21";"PM10";"PM10";"ug/m3";"15.4115638123887";"A";"DATA_VALIDATE_ENV";
"PBW02e";"2022/03/02 00:01";"2022/03/02 23:59";"2022/03/21";"PM10";"PM10";"ug/m3";"21.1033538170463";"A";"DATA_VALIDATE_ENV";
"PBW02e";"2022/03/03 00:01";"2022/03/03 23:59";"2022/03/21";"PM10";"PM10";"ug/m3";"21.9832010049393";"A";"DATA_VALIDATE_ENV";
"PBW02e";"2022/03/04 00:01";"2022/03/04 23:59";"2022/03/21";"PM10";"PM10";"ug/m3";"20.9270480409243";"A";"DATA_VALIDATE_ENV";
"PBW02e";"2022/03/05 00:01";"2022/03/05 23:59";"2022/03/21";"PM10";"PM10";"ug/m3";"19.2795771476124";"A";"DATA_VALIDATE_ENV";
"PBW02e";"2022/03/06 00:01";"2022/03/06 23:59";"2022/03/21";"PM10";"PM10";"ug/m3";"13.7449760139367";"A";"DATA_VALIDATE_ENV";
"PBW02e";"2022/03/07 00:01";"2022/03/07 23:59";"2022/03/21";"PM10";"PM10";"ug/m3";"11.6132257897978";"A";"DATA_VALIDATE_ENV";
"PBW02e";"2022/03/08 00:01";"2022/03/08 23:59";"2022/04/21";"PM10";"PM10";"ug/m3";"11.2138606095526";"A";"DATA_VALIDATE_ENV";
"PBW02e";"2022/03/09 00:01";"2022/03/09 23:59";"2022/04/21";"PM10";"PM10";"ug/m3";"25.0588807106191";"A";"DATA_VALIDATE_ENV";
"PBW02e";"2022/03/10 00:01";"2022/03/10 23:59";"2022/04/21";"PM10";"PM10";"ug/m3";"22.7451584036738";"A";"DATA_VALIDATE_ENV";
"PBW02e";"2022/03/11 00:01";"2022/03/11 23:59";"2022/04/21";"PM10";"PM10";"ug/m3";"20.1922629152915";"A";"DATA_VALIDATE_ENV";
"PBW02e";"2022/03/12 00:01";"2022/03/12 23:59";"2022/04/21";"PM10";"PM10";"ug/m3";"7.50330653473548";"A";"DATA_VALIDATE_ENV";
"PBW02e";"2022/03/13 00:01";"2022/03/13 23:59";"2022/04/21";"PM10";"PM10";"ug/m3";"10.7946909736999";"A";"DATA_VALIDATE_ENV";
"PBW02e";"2022/03/14 00:01";"2022/03/14 23:59";"2022/04/21";"PM10";"PM10";"ug/m3";"5.87015440969756";"A";"DATA_VALIDATE_ENV";
"PBW02e";"2022/03/15 00:01";"2022/03/15 23:59";"2022/04/21";"PM10";"PM10";"ug/m3";"6.71376941468404";"A";"DATA_VALIDATE_ENV";
"PBW02e";"2022/03/16 00:01";"2022/03/16 23:59";"2022/04/21";"PM10";"PM10";"ug/m3";"11.8216960362223";"A";"DATA_VALIDATE_ENV";
"PBW02e";"2022/03/17 00:01";"2022/03/17 23:59";"2022/04/21";"PM10";"PM10";"ug/m3";"13.7970911228086";"A";"DATA_VALIDATE_ENV";
"PBW02e";"2022/03/18 00:01";"2022/03/18 23:59";"2022/04/21";"PM10";"PM10";"ug/m3";"6.37732932806361";"A";"DATA_VALIDATE_ENV";
"PBW02e";"2022/03/19 00:01";"2022/03/19 23:59";"2022/04/21";"PM10";"PM10";"ug/m3";"8.74628671996716";"A";"DATA_VALIDATE_ENV";
"PBW02e";"2022/03/20 00:01";"2022/03/20 23:59";"2022/04/21";"PM10";"PM10";"ug/m3";"20.7907964944493";"A";"DATA_VALIDATE_ENV";
"PBW02e";"2022/03/21 00:01";"2022/03/21 23:59";"2022/04/21";"PM10";"PM10";"ug/m3";"15.4238239517447";"A";"DATA_VALIDATE_ENV";
"PBW02e";"2022/03/22 00:01";"2022/03/22 23:59";"2022/05/10";"PM10";"PM10";"ug/m3";"20.9308453641036";"A";"DATA_VALIDATE_ENV";
"PBW02e";"2022/03/23 00:01";"2022/03/23 23:59";"2022/05/10";"PM10";"PM10";"ug/m3";"21.5801903748201";"A";"DATA_VALIDATE_ENV";
"PBW02e";"2022/03/24 00:01";"2022/03/24 23:59";"2022/05/10";"PM10";"PM10";"ug/m3";"30.7384105759207";"A";"DATA_VALIDATE_ENV";
"PBW02e";"2022/03/25 00:01";"2022/03/25 23:59";"2022/05/10";"PM10";"PM10";"ug/m3";"35.4472424066385";"A";"DATA_VALIDATE_ENV";
"PBW02e";"2022/03/26 00:01";"2022/03/26 23:59";"2022/05/10";"PM10";"PM10";"ug/m3";"26.0295787452029";"A";"DATA_VALIDATE_ENV";
"PBW02e";"2022/03/27 00:01";"2022/03/27 23:59";"2022/05/10";"PM10";"PM10";"ug/m3";"11.9466112902272";"A";"DATA_VALIDATE_ENV";
"PBW02e";"2022/03/28 00:01";"2022/03/28 23:59";"2022/05/10";"PM10";"PM10";"ug/m3";"19.6154008130589";"A";"DATA_VALIDATE_ENV";
"PBW02e";"2022/03/29 00:01";"2022/03/29 23:59";"2022/05/10";"PM10";"PM10";"ug/m3";"35.7219654693659";"A";"DATA_VALIDATE_ENV";
"PBW02e";"2022/03/30 00:01";"2022/03/30 23:59";"2022/05/10";"PM10";"PM10";"ug/m3";"16.8936608642789";"A";"DATA_VALIDATE_ENV";
"PBW02e";"2022/03/31 00:01";"2022/03/31 23:59";"2022/05/10";"PM10";"PM10";"ug/m3";"10.3775557828053";"A";"DATA_VALIDATE_ENV";
"PBW02e";"2022/04/01 00:01";"2022/04/01 23:59";"2022/05/10";"PM10";"PM10";"ug/m3";"7.65742850680032";"A";"DATA_VALIDATE_ENV";
"PBW02e";"2022/04/02 00:01";"2022/04/02 23:59";"2022/05/10";"PM10";"PM10";"ug/m3";"2.45820498431888";"A";"DATA_VALIDATE_ENV";
"PBW02e";"2022/04/03 00:01";"2022/04/03 23:59";"2022/05/10";"PM10";"PM10";"ug/m3";"6.45960335548939";"A";"DATA_VALIDATE_ENV";
"PBW02e";"2022/04/04 00:01";"2022/04/04 23:59";"2022/05/10";"PM10";"PM10";"ug/m3";"9.22730950646426";"A";"DATA_VALIDATE_ENV";
"PBW02e";"2022/04/05 00:01";"2022/04/05 23:59";"2022/05/13";"PM10";"PM10";"ug/m3";"2";"O";"DATA_VALIDATE_ENV";
"PBW02e";"2022/04/06 00:01";"2022/04/06 23:59";"2022/05/13";"PM10";"PM10";"ug/m3";"4.20969295276745";"A";"DATA_VALIDATE_ENV";
"PBW02e";"2022/04/07 00:01";"2022/04/07 23:59";"2022/05/13";"PM10";"PM10";"ug/m3";"2";"O";"DATA_VALIDATE_ENV";
"PBW02e";"2022/04/08 00:01";"2022/04/08 23:59";"2022/05/13";"PM10";"PM10";"ug/m3";"2";"O";"DATA_VALIDATE_ENV";
"PBW02e";"2022/04/09 00:01";"2022/04/09 23:59";"2022/05/13";"PM10";"PM10";"ug/m3";"4.83476717690079";"A";"DATA_VALIDATE_ENV";
"PBW02e";"2022/04/10 00:01";"2022/04/10 23:59";"2022/05/13";"PM10";"PM10";"ug/m3";"6.09701113700001";"A";"DATA_VALIDATE_ENV";
"PBW02e";"2022/04/11 00:01";"2022/04/11 23:59";"2022/05/13";"PM10";"PM10";"ug/m3";"3.07485136826602";"A";"DATA_VALIDATE_ENV";
"PBW02e";"2022/04/12 00:01";"2022/04/12 23:59";"2022/05/13";"PM10";"PM10";"ug/m3";"8.07463938907408";"A";"DATA_VALIDATE_ENV";
"PBW02e";"2022/04/13 00:01";"2022/04/13 23:59";"2022/05/13";"PM10";"PM10";"ug/m3";"15.8410348340185";"A";"DATA_VALIDATE_ENV";
"PBW02e";"2022/04/14 00:01";"2022/04/14 23:59";"2022/05/13";"PM10";"PM10";"ug/m3";"8.81715116722317";"A";"DATA_VALIDATE_ENV";
"PBW02e";"2022/04/16 00:01";"2022/04/16 23:59";"2022/05/13";"PM10";"PM10";"ug/m3";"2";"O";"DATA_VALIDATE_ENV";
"PBW02e";"2022/04/17 00:01";"2022/04/17 23:59";"2022/05/13";"PM10";"PM10";"ug/m3";"2";"O";"DATA_VALIDATE_ENV";
"PBW02e";"2022/04/18 00:01";"2022/04/18 23:59";"2022/05/13";"PM10";"PM10";"ug/m3";"2.59465691918276";"A";"DATA_VALIDATE_ENV";
"PBW02e";"2022/04/19 00:01";"2022/04/19 23:59";"2022/05/30";"PM10";"PM10";"ug/m3";"8.59952716938124";"A";"DATA_VALIDATE_ENV";
"PBW02e";"2022/04/20 00:01";"2022/04/20 23:59";"2022/05/30";"PM10";"PM10";"ug/m3";"10.5770669758579";"A";"DATA_VALIDATE_ENV";
"PBW02e";"2022/04/21 00:01";"2022/04/21 23:59";"2022/05/30";"PM10";"PM10";"ug/m3";"7.28537265844731";"A";"DATA_VALIDATE_ENV";
"PBW02e";"2022/04/22 00:01";"2022/04/22 23:59";"2022/05/30";"PM10";"PM10";"ug/m3";"11.0689318779267";"A";"DATA_VALIDATE_ENV";
"PBW02e";"2022/04/23 00:01";"2022/04/23 23:59";"2022/05/30";"PM10";"PM10";"ug/m3";"12.4726936502277";"A";"DATA_VALIDATE_ENV";
"PBW02e";"2022/04/24 00:01";"2022/04/24 23:59";"2022/05/30";"PM10";"PM10";"ug/m3";"10.2793947578753";"A";"DATA_VALIDATE_ENV";
"PBW02e";"2022/04/25 00:01";"2022/04/25 23:59";"2022/05/30";"PM10";"PM10";"ug/m3";"8.4089372085383";"A";"DATA_VALIDATE_ENV";
"PBW02e";"2022/04/26 00:01";"2022/04/26 23:59";"2022/05/30";"PM10";"PM10";"ug/m3";"10.7604175443724";"A";"DATA_VALIDATE_ENV";
"PBW02e";"2022/04/27 00:01";"2022/04/27 23:59";"2022/05/30";"PM10";"PM10";"ug/m3";"16.1765881100404";"A";"DATA_VALIDATE_ENV";
"PBW02e";"2022/04/28 00:01";"2022/04/28 23:59";"2022/05/30";"PM10";"PM10";"ug/m3";"15.4235535623201";"A";"DATA_VALIDATE_ENV";
"PBW02e";"2022/04/29 00:01";"2022/04/29 23:59";"2022/05/30";"PM10";"PM10";"ug/m3";"19.7386317744483";"A";"DATA_VALIDATE_ENV";
"PBW02e";"2022/04/30 00:01";"2022/04/30 23:59";"2022/05/30";"PM10";"PM10";"ug/m3";"18.4270392916116";"A";"DATA_VALIDATE_ENV";
"PBW02e";"2022/05/01 00:01";"2022/05/01 23:59";"2022/05/30";"PM10";"PM10";"ug/m3";"16.8627509184949";"A";"DATA_VALIDATE_ENV";
"PBW02e";"2022/05/02 00:01";"2022/05/02 23:59";"2022/05/30";"PM10";"PM10";"ug/m3";"18.1606550348168";"A";"DATA_VALIDATE_ENV";
"PBW02e";"2022/05/03 00:01";"2022/05/03 23:59";"2022/06/09";"PM10";"PM10";"ug/m3";"22.9084736161776";"A";"DATA_VALIDATE_ENV";
"PBW02e";"2022/05/04 00:01";"2022/05/04 23:59";"2022/06/09";"PM10";"PM10";"ug/m3";"21.0941605766074";"A";"DATA_VALIDATE_ENV";
"PBW02e";"2022/05/05 00:01";"2022/05/05 23:59";"2022/06/09";"PM10";"PM10";"ug/m3";"19.0619136607489";"A";"DATA_VALIDATE_ENV";
"PBW02e";"2022/05/06 00:01";"2022/05/06 23:59";"2022/06/09";"PM10";"PM10";"ug/m3";"18.3963918374481";"A";"DATA_VALIDATE_ENV";
"PBW02e";"2022/05/07 00:01";"2022/05/07 23:59";"2022/06/09";"PM10";"PM10";"ug/m3";"14.3053310183897";"A";"DATA_VALIDATE_ENV";
"PBW02e";"2022/05/08 00:01";"2022/05/08 23:59";"2022/06/09";"PM10";"PM10";"ug/m3";"13.9787598514418";"A";"DATA_VALIDATE_ENV";
"PBW02e";"2022/05/09 00:01";"2022/05/09 23:59";"2022/06/09";"PM10";"PM10";"ug/m3";"9.27970354027603";"A";"DATA_VALIDATE_ENV";
"PBW02e";"2022/05/10 00:01";"2022/05/10 23:59";"2022/06/09";"PM10";"PM10";"ug/m3";"11.574622941121";"A";"DATA_VALIDATE_ENV";
"PBW02e";"2022/05/11 00:01";"2022/05/11 23:59";"2022/06/09";"PM10";"PM10";"ug/m3";"11.60192731849";"A";"DATA_VALIDATE_ENV";
"PBW02e";"2022/05/12 00:01";"2022/05/12 23:59";"2022/06/09";"PM10";"PM10";"ug/m3";"6.7309345320105";"A";"DATA_VALIDATE_ENV";
"PBW02e";"2022/05/13 00:01";"2022/05/13 23:59";"2022/06/09";"PM10";"PM10";"ug/m3";"4.99805276037474";"A";"DATA_VALIDATE_ENV";
"PBW02e";"2022/05/14 00:01";"2022/05/14 23:59";"2022/06/09";"PM10";"PM10";"ug/m3";"8.23673039285469";"A";"DATA_VALIDATE_ENV";
"PBW02e";"2022/05/15 00:01";"2022/05/15 23:59";"2022/06/09";"PM10";"PM10";"ug/m3";"10.3229470280674";"A";"DATA_VALIDATE_ENV";
"PBW02e";"2022/05/16 00:01";"2022/05/16 23:59";"2022/06/09";"PM10";"PM10";"ug/m3";"11.4840589171743";"A";"DATA_VALIDATE_ENV";
"PBW02e";"2022/05/17 00:01";"2022/05/17 23:59";"2022/06/28";"PM10";"PM10";"ug/m3";"9.61694066742115";"A";"DATA_VALIDATE_ENV";
"PBW02e";"2022/05/18 00:01";"2022/05/18 23:59";"2022/06/28";"PM10";"PM10";"ug/m3";"9.65169188938224";"A";"DATA_VALIDATE_ENV";
"PBW02e";"2022/05/19 00:01";"2022/05/19 23:59";"2022/06/28";"PM10";"PM10";"ug/m3";"11.3934948932277";"A";"DATA_VALIDATE_ENV";
"PBW02e";"2022/05/20 00:01";"2022/05/20 23:59";"2022/06/28";"PM10";"PM10";"ug/m3";"10.8328819101853";"A";"DATA_VALIDATE_ENV";
"PBW02e";"2022/05/21 00:01";"2022/05/21 23:59";"2022/06/28";"PM10";"PM10";"ug/m3";"4.56280476469087";"A";"DATA_VALIDATE_ENV";
"PBW02e";"2022/05/22 00:01";"2022/05/22 23:59";"2022/06/28";"PM10";"PM10";"ug/m3";"5.21689355968239";"A";"DATA_VALIDATE_ENV";
"PBW02e";"2022/05/23 00:01";"2022/05/23 23:59";"2022/06/28";"PM10";"PM10";"ug/m3";"8.5627608790626";"A";"DATA_VALIDATE_ENV";
"PBW02e";"2022/05/24 00:01";"2022/05/24 23:59";"2022/06/28";"PM10";"PM10";"ug/m3";"3.45665840504715";"A";"DATA_VALIDATE_ENV";
"PBW02e";"2022/05/25 00:01";"2022/05/25 23:59";"2022/06/28";"PM10";"PM10";"ug/m3";"5.16160868421867";"A";"DATA_VALIDATE_ENV";
"PBW02e";"2022/05/26 00:01";"2022/05/26 23:59";"2022/06/28";"PM10";"PM10";"ug/m3";"3.88262839379608";"A";"DATA_VALIDATE_ENV";
"PBW02e";"2022/05/27 00:01";"2022/05/27 23:59";"2022/06/28";"PM10";"PM10";"ug/m3";"4.23700228465964";"A";"DATA_VALIDATE_ENV";
"PBW02e";"2022/05/28 00:01";"2022/05/28 23:59";"2022/06/28";"PM10";"PM10";"ug/m3";"7.66496051032588";"A";"DATA_VALIDATE_ENV";
"PBW02e";"2022/05/29 00:01";"2022/05/29 23:59";"2022/06/28";"PM10";"PM10";"ug/m3";"3.40142253521392";"A";"DATA_VALIDATE_ENV";
"PBW02e";"2022/05/30 00:01";"2022/05/30 23:59";"2022/06/28";"PM10";"PM10";"ug/m3";"3.72001770468075";"A";"DATA_VALIDATE_ENV";
"PBW02e";"2022/05/31 00:01";"2022/05/31 23:59";"2022/07/13";"PM10";"PM10";"ug/m3";"7.26593812422067";"A";"DATA_VALIDATE_ENV";
"PBW02e";"2022/06/01 00:01";"2022/06/01 23:59";"2022/07/13";"PM10";"PM10";"ug/m3";"4.98976644295526";"A";"DATA_VALIDATE_ENV";
"PBW02e";"2022/06/03 00:01";"2022/06/03 23:59";"2022/07/13";"PM10";"PM10";"ug/m3";"8.25926918175041";"A";"DATA_VALIDATE_ENV";
"PBW02e";"2022/06/04 00:01";"2022/06/04 23:59";"2022/07/13";"PM10";"PM10";"ug/m3";"7.45761072196538";"A";"DATA_VALIDATE_ENV";
"PBW02e";"2022/06/05 00:01";"2022/06/05 23:59";"2022/07/13";"PM10";"PM10";"ug/m3";"5.69764595675481";"A";"DATA_VALIDATE_ENV";
"PBW02e";"2022/06/06 00:01";"2022/06/06 23:59";"2022/07/13";"PM10";"PM10";"ug/m3";"6.85923892515927";"A";"DATA_VALIDATE_ENV";
"PBW02e";"2022/06/07 00:01";"2022/06/07 23:59";"2022/07/13";"PM10";"PM10";"ug/m3";"3.82801963905811";"A";"DATA_VALIDATE_ENV";
"PBW02e";"2022/06/08 00:01";"2022/06/08 23:59";"2022/07/13";"PM10";"PM10";"ug/m3";"2.63115949151391";"A";"DATA_VALIDATE_ENV";
"PBW02e";"2022/06/09 00:01";"2022/06/09 23:59";"2022/07/13";"PM10";"PM10";"ug/m3";"7.25833371597979";"A";"DATA_VALIDATE_ENV";
"PBW02e";"2022/06/10 00:01";"2022/06/10 23:59";"2022/07/13";"PM10";"PM10";"ug/m3";"9.47228232521994";"A";"DATA_VALIDATE_ENV";
"PBW02e";"2022/06/11 00:01";"2022/06/11 23:59";"2022/07/13";"PM10";"PM10";"ug/m3";"8.19252917823245";"A";"DATA_VALIDATE_ENV";
"PBW02e";"2022/06/12 00:01";"2022/06/12 23:59";"2022/07/13";"PM10";"PM10";"ug/m3";"6.7850026060085";"A";"DATA_VALIDATE_ENV";
"PBW02e";"2022/06/13 00:01";"2022/06/13 23:59";"2022/07/13";"PM10";"PM10";"ug/m3";"10.0142183255388";"A";"DATA_VALIDATE_ENV";
"PBW02e";"2022/06/14 00:01";"2022/06/14 23:59";"2022/07/21";"PM10";"PM10";"ug/m3";"10.5062514851777";"A";"DATA_VALIDATE_ENV";
"PBW02e";"2022/06/15 00:01";"2022/06/15 23:59";"2022/07/21";"PM10";"PM10";"ug/m3";"15.7746309292853";"A";"DATA_VALIDATE_ENV";
"PBW02e";"2022/06/16 00:01";"2022/06/16 23:59";"2022/07/21";"PM10";"PM10";"ug/m3";"13.8516998775466";"A";"DATA_VALIDATE_ENV";
"PBW02e";"2022/06/17 00:01";"2022/06/17 23:59";"2022/07/21";"PM10";"PM10";"ug/m3";"10.1869658219624";"A";"DATA_VALIDATE_ENV";
"PBW02e";"2022/06/18 00:01";"2022/06/18 23:59";"2022/07/21";"PM10";"PM10";"ug/m3";"24.5101393047715";"A";"DATA_VALIDATE_ENV";
"PBW02e";"2022/06/19 00:01";"2022/06/19 23:59";"2022/07/21";"PM10";"PM10";"ug/m3";"24.9908044826137";"A";"DATA_VALIDATE_ENV";
"PBW02e";"2022/06/20 00:01";"2022/06/20 23:59";"2022/07/21";"PM10";"PM10";"ug/m3";"8.64597224341268";"A";"DATA_VALIDATE_ENV";
"PBW02e";"2022/06/21 00:01";"2022/06/21 23:59";"2022/07/21";"PM10";"PM10";"ug/m3";"12.6109627668491";"A";"DATA_VALIDATE_ENV";
"PBW02e";"2022/06/22 00:01";"2022/06/22 23:59";"2022/07/21";"PM10";"PM10";"ug/m3";"13.6338055393346";"A";"DATA_VALIDATE_ENV";
"PBW02e";"2022/06/23 00:01";"2022/06/23 23:59";"2022/07/21";"PM10";"PM10";"ug/m3";"16.802810017588";"A";"DATA_VALIDATE_ENV";
"PBW02e";"2022/06/24 00:01";"2022/06/24 23:59";"2022/07/21";"PM10";"PM10";"ug/m3";"6.38713898967645";"A";"DATA_VALIDATE_ENV";
"PBW02e";"2022/06/25 00:01";"2022/06/25 23:59";"2022/07/21";"PM10";"PM10";"ug/m3";"6.97658793546829";"A";"DATA_VALIDATE_ENV";
"PBW02e";"2022/06/26 00:01";"2022/06/26 23:59";"2022/07/21";"PM10";"PM10";"ug/m3";"3.8108685513716";"A";"DATA_VALIDATE_ENV";
"PBW02e";"2022/06/27 00:01";"2022/06/27 23:59";"2022/07/21";"PM10";"PM10";"ug/m3";"5.22581641069667";"A";"DATA_VALIDATE_ENV";
"PBW02e";"2022/06/28 00:01";"2022/06/28 23:59";"2022/07/28";"PM10";"PM10";"ug/m3";"7.26566778385068";"A";"DATA_VALIDATE_ENV";
"PBW02e";"2022/06/29 00:01";"2022/06/29 23:59";"2022/07/28";"PM10";"PM10";"ug/m3";"8.79876802206386";"A";"DATA_VALIDATE_ENV";
"PBW02e";"2022/06/30 00:01";"2022/06/30 23:59";"2022/07/28";"PM10";"PM10";"ug/m3";"7.79229082459116";"A";"DATA_VALIDATE_ENV";
"PBW02e";"2022/07/01 00:01";"2022/07/01 23:59";"2022/07/28";"PM10";"PM10";"ug/m3";"5.21689355968239";"A";"DATA_VALIDATE_ENV";
"PBW02e";"2022/07/02 00:01";"2022/07/02 23:59";"2022/07/28";"PM10";"PM10";"ug/m3";"4.52740052676075";"A";"DATA_VALIDATE_ENV";
"PBW02e";"2022/07/03 00:01";"2022/07/03 23:59";"2022/07/28";"PM10";"PM10";"ug/m3";"5.66141377384834";"A";"DATA_VALIDATE_ENV";
"PBW02e";"2022/07/04 00:01";"2022/07/04 23:59";"2022/07/28";"PM10";"PM10";"ug/m3";"4.57172599690054";"A";"DATA_VALIDATE_ENV";
"PBW02e";"2022/07/05 00:01";"2022/07/05 23:59";"2022/07/28";"PM10";"PM10";"ug/m3";"7.41245568804463";"A";"DATA_VALIDATE_ENV";
"PBW02e";"2022/07/06 00:01";"2022/07/06 23:59";"2022/07/28";"PM10";"PM10";"ug/m3";"6.58695677451139";"A";"DATA_VALIDATE_ENV";
"PBW02e";"2022/07/07 00:01";"2022/07/07 23:59";"2022/07/28";"PM10";"PM10";"ug/m3";"6.19678483470515";"A";"DATA_VALIDATE_ENV";
"PBW02e";"2022/07/08 00:01";"2022/07/08 23:59";"2022/07/28";"PM10";"PM10";"ug/m3";"7.27512969680033";"A";"DATA_VALIDATE_ENV";
"PBW02e";"2022/07/09 00:01";"2022/07/09 23:59";"2022/07/28";"PM10";"PM10";"ug/m3";"6.7413491360009";"A";"DATA_VALIDATE_ENV";
"PBW02e";"2022/07/10 00:01";"2022/07/10 23:59";"2022/07/28";"PM10";"PM10";"ug/m3";"3.69243798336388";"A";"DATA_VALIDATE_ENV";